Location: Laura�t
(43.9341°N, 0.2497°E)
Time: 08:41:15
(UTC+00:00)

Okean 1-7 - Pass Details

Date: 03 March 2021
Orbit: 589 x 619 km, 82.5° (Epoch: 18 April)

Event Time Altitude Azimuth Distance (km) Brightness Sun altitude
Rises 19:35:14 0° 350° (N) 2,895 6.8 -19.6°
Reaches altitude 10° 19:37:29 10° 349° (NNW) 1,981 5.9 -20.0°
Maximum altitude 19:41:51 76° 264° (W) 632 3.1 -20.8°
Enters shadow 19:45:41 13° 179° (S) 1,755 5.2 -21.5°
